Weather History for KGCM - November, 2013

Change the Weather History Date:

Friday, November 29, 2013

  Actual Average (KTUL) Record (KTUL)
Temperature  
Mean Temperature 40 °F 44 °F  
Max Temperature 53 °F 54 °F 82 °F (1927)
Min Temperature 28 °F 34 °F 10 °F (1976)
Degree Days  
Heating Degree Days 24 21  
Month to date heating degree days 429  
Since 1 July heating degree days 615  
Moisture  
Dew Point 27 °F    
Average Humidity 65    
Maximum Humidity 93    
Minimum Humidity 33    
Precipitation  
Precipitation 0.00 in 0.09 in 2.80 in (1908)
Month to date precipitation 2.73  
Year to date precipitation 38.40  
Sea Level Pressure  
Sea Level Pressure 30.43 in    
Wind  
Wind Speed 6 mph (SSE)    
Max Wind Speed 13 mph    
Max Gust Speed 17 mph    
Visibility 10 miles    
Events      
T = Trace of Precipitation, MM = Missing Value Source: NWS Daily Summary

Daily Weather History Graph

Daily Weather History Graph

Search for Another Location

Airport or City:

Trip Planner

Search our weather history database for the weather conditions in past years. The results will help you decide how hot, cold, wet, or windy it might be!

Date:

Astronomy

Nov. 29, 2013 Rise Set
Actual Time 7:13 AM CST 5:07 PM CST
Civil Twilight 6:44 AM CST 5:35 PM CST
Nautical Twilight 6:13 AM CST 6:07 PM CST
Astronomical Twilight 5:42 AM CST 6:38 PM CST
Moon 3:25 AM CST (11/29) 2:47 PM CST (11/29)
Length of Visible Light 10h 50m
Length of Day
9h 54m
Waning Crescent, 14% of the Moon is Illuminated
Nov 29
Waning Crescent
Dec 2
New
Dec 9
First Quarter
Dec 17
Full
Dec 25
Last Quarter

Hourly Weather History & Observations

Time (CST) Temp. Windchill Dew Point Humidity Pressure Visibility Wind Dir Wind Speed Gust Speed Precip Events Conditions
12:15 AM 32.0 °F 26.4 °F 26.6 °F 80% 30.47 in 10.0 mi SE 5.8 mph - N/A   Clear
12:35 AM 32.0 °F 25.6 °F 26.6 °F 80% 30.47 in 10.0 mi SE 6.9 mph - N/A   Clear
12:55 AM 32.0 °F 26.4 °F 26.6 °F 80% 30.47 in 10.0 mi SSE 5.8 mph - N/A   Clear
1:15 AM 32.0 °F 26.4 °F 26.6 °F 80% 30.47 in 10.0 mi SE 5.8 mph - N/A   Clear
1:35 AM 32.0 °F 26.4 °F 26.6 °F 80% 30.47 in 10.0 mi SE 5.8 mph - N/A   Clear
1:55 AM 32.0 °F - 26.6 °F 80% 30.47 in 10.0 mi Calm Calm - N/A   Clear
2:15 AM 32.0 °F 26.4 °F 26.6 °F 80% 30.47 in 10.0 mi SE 5.8 mph - N/A   Clear
2:35 AM 30.2 °F 24.3 °F 24.8 °F 80% 30.48 in 10.0 mi SSE 5.8 mph - N/A   Clear
2:55 AM 30.2 °F 23.4 °F 24.8 °F 80% 30.48 in 10.0 mi SSE 6.9 mph - N/A   Clear
3:15 AM 30.2 °F 23.4 °F 26.6 °F 86% 30.48 in 10.0 mi SSE 6.9 mph - N/A   Clear
3:35 AM 30.2 °F 24.3 °F 24.8 °F 80% 30.49 in 10.0 mi South 5.8 mph - N/A   Clear
3:55 AM 28.4 °F - 24.8 °F 86% 30.49 in 10.0 mi Calm Calm - N/A   Clear
4:15 AM 28.4 °F 22.2 °F 23.0 °F 80% 30.49 in 10.0 mi SSE 5.8 mph - N/A   Clear
4:35 AM 28.4 °F 22.2 °F 24.8 °F 86% 30.49 in 10.0 mi SSE 5.8 mph - N/A   Clear
4:55 AM 30.2 °F 24.3 °F 24.8 °F 80% 30.49 in 10.0 mi SSE 5.8 mph - N/A   Clear
5:15 AM 30.2 °F 24.3 °F 24.8 °F 80% 30.50 in 10.0 mi SSE 5.8 mph - N/A   Clear
5:35 AM 30.2 °F 25.4 °F 24.8 °F 80% 30.50 in 10.0 mi SE 4.6 mph - N/A   Clear
5:55 AM 30.2 °F 25.4 °F 24.8 °F 80% 30.50 in 10.0 mi SE 4.6 mph - N/A   Clear
6:15 AM 30.2 °F 24.3 °F 24.8 °F 80% 30.50 in 10.0 mi SE 5.8 mph - N/A   Clear
6:35 AM 28.4 °F 23.3 °F 26.6 °F 93% 30.50 in 10.0 mi SE 4.6 mph - N/A   Clear
6:55 AM 28.4 °F 23.3 °F 24.8 °F 86% 30.50 in 10.0 mi SE 4.6 mph - N/A   Clear
7:15 AM 30.2 °F 26.7 °F 24.8 °F 80% 30.51 in 10.0 mi SE 3.5 mph - N/A   Clear
7:35 AM 30.2 °F - 26.6 °F 86% 30.51 in 10.0 mi Calm Calm - N/A   Clear
7:55 AM 30.2 °F - 26.6 °F 86% 30.51 in 10.0 mi Calm Calm - N/A   Clear
8:15 AM 32.0 °F - 26.6 °F 80% 30.51 in 10.0 mi Calm Calm - N/A   Clear
8:35 AM 32.0 °F - 28.4 °F 87% 30.51 in 10.0 mi Calm Calm - N/A   Clear
8:55 AM 33.8 °F 29.6 °F 28.4 °F 81% 30.52 in 10.0 mi SSE 4.6 mph - N/A   Clear
9:15 AM 35.6 °F 30.7 °F 30.2 °F 81% 30.53 in 10.0 mi South 5.8 mph - N/A   Clear
9:35 AM 39.2 °F 35.0 °F 30.2 °F 70% 30.53 in 10.0 mi South 5.8 mph - N/A   Clear
9:55 AM 41.0 °F 35.8 °F 30.2 °F 65% 30.53 in 10.0 mi South 8.1 mph - N/A   Clear
10:15 AM 42.8 °F 37.5 °F 30.2 °F 61% 30.52 in 10.0 mi SSE 9.2 mph - N/A   Clear
10:35 AM 44.6 °F 40.7 °F 30.2 °F 57% 30.51 in 10.0 mi SSE 6.9 mph - N/A   Clear
10:55 AM 46.4 °F 42.4 °F 30.2 °F 53% 30.51 in 10.0 mi South 8.1 mph - N/A   Clear
11:15 AM 46.4 °F 41.5 °F 30.2 °F 53% 30.51 in 10.0 mi SSW 10.4 mph - N/A   Clear
11:35 AM 46.4 °F 41.9 °F 30.2 °F 53% 30.49 in 10.0 mi SSW 9.2 mph - N/A   Clear
11:55 AM 48.2 °F - 30.2 °F 50% 30.48 in 10.0 mi South 9.2 mph - N/A   Clear
12:15 PM 50.0 °F - 30.2 °F 47% 30.47 in 10.0 mi SSE 9.2 mph 16.1 mph N/A   Clear
12:35 PM 50.0 °F - 28.4 °F 43% 30.46 in 10.0 mi SSE 8.1 mph - N/A   Clear
12:55 PM 50.0 °F - 26.6 °F 40% 30.45 in 10.0 mi South 9.2 mph - N/A   Clear
1:15 PM 51.8 °F - 26.6 °F 38% 30.44 in 10.0 mi SSE 10.4 mph - N/A   Clear
1:35 PM 51.8 °F - 26.6 °F 38% 30.43 in 10.0 mi SSE 10.4 mph 16.1 mph N/A   Clear
1:55 PM 51.8 °F - 26.6 °F 38% 30.41 in 10.0 mi SSE 10.4 mph - N/A   Clear
2:15 PM 51.8 °F - 26.6 °F 38% 30.40 in 10.0 mi SSE 11.5 mph 17.3 mph N/A   Clear
2:35 PM 51.8 °F - 23.0 °F 33% 30.38 in 10.0 mi SSE 10.4 mph 17.3 mph N/A   Clear
2:55 PM 53.6 °F - 24.8 °F 33% 30.37 in 10.0 mi South 11.5 mph - N/A   Clear
3:15 PM 51.8 °F - 24.8 °F 35% 30.36 in 10.0 mi SSE 11.5 mph 16.1 mph N/A   Clear
3:35 PM 53.6 °F - 26.6 °F 35% 30.36 in 10.0 mi South 11.5 mph - N/A   Clear
3:55 PM 53.6 °F - 26.6 °F 35% 30.36 in 10.0 mi South 12.7 mph 16.1 mph N/A   Clear
4:15 PM 51.8 °F - 26.6 °F 38% 30.36 in 10.0 mi SSE 11.5 mph - N/A   Clear
4:35 PM 51.8 °F - 26.6 °F 38% 30.35 in 10.0 mi South 11.5 mph - N/A   Clear
4:55 PM 50.0 °F - 26.6 °F 40% 30.34 in 10.0 mi SSE 8.1 mph - N/A   Clear
5:15 PM 46.4 °F 42.9 °F 28.4 °F 50% 30.34 in 10.0 mi SSE 6.9 mph - N/A   Clear
5:35 PM 44.6 °F 40.7 °F 28.4 °F 53% 30.34 in 10.0 mi SSE 6.9 mph - N/A   Clear
5:55 PM 42.8 °F 38.6 °F 28.4 °F 57% 30.34 in 10.0 mi SSE 6.9 mph - N/A   Clear
6:15 PM 41.0 °F 35.8 °F 28.4 °F 61% 30.34 in 10.0 mi SSE 8.1 mph - N/A   Clear
6:35 PM 39.2 °F 33.6 °F 28.4 °F 65% 30.34 in 10.0 mi SSE 8.1 mph - N/A   Clear
6:55 PM 41.0 °F 35.8 °F 28.4 °F 61% 30.34 in 10.0 mi SSE 8.1 mph - N/A   Clear
7:15 PM 41.0 °F 35.8 °F 28.4 °F 61% 30.34 in 10.0 mi SSE 8.1 mph - N/A   Clear
7:35 PM 37.4 °F 30.8 °F 28.4 °F 70% 30.34 in 10.0 mi SSE 9.2 mph - N/A   Clear
7:55 PM 37.4 °F 30.8 °F 28.4 °F 70% 30.33 in 10.0 mi SSE 9.2 mph - N/A   Clear
8:15 PM 39.2 °F 34.2 °F 28.4 °F 65% 30.33 in 10.0 mi SSE 6.9 mph - N/A   Clear
8:35 PM 39.2 °F 33.0 °F 28.4 °F 65% 30.33 in 10.0 mi South 9.2 mph - N/A   Clear
8:55 PM 41.0 °F 35.2 °F 28.4 °F 61% 30.33 in 10.0 mi South 9.2 mph - N/A   Clear
9:15 PM 41.0 °F 35.8 °F 28.4 °F 61% 30.33 in 10.0 mi South 8.1 mph - N/A   Clear
9:35 PM 41.0 °F 35.8 °F 28.4 °F 61% 30.34 in 10.0 mi South 8.1 mph - N/A   Clear
9:55 PM 39.2 °F 35.0 °F 28.4 °F 65% 30.34 in 10.0 mi South 5.8 mph - N/A   Clear
10:15 PM 37.4 °F 34.9 °F 28.4 °F 70% 30.35 in 10.0 mi SSE 3.5 mph - N/A   Clear
10:35 PM 35.6 °F 30.7 °F 28.4 °F 75% 30.34 in 10.0 mi SSE 5.8 mph - N/A   Clear
10:55 PM 37.4 °F 34.9 °F 28.4 °F 70% 30.34 in 10.0 mi SSE 3.5 mph - N/A   Clear
11:15 PM 35.6 °F 32.8 °F 28.4 °F 75% 30.35 in 10.0 mi SSE 3.5 mph - N/A   Clear
11:35 PM 35.6 °F 30.7 °F 28.4 °F 75% 30.34 in 10.0 mi SSE 5.8 mph - N/A   Clear
11:55 PM 35.6 °F 29.2 °F 28.4 °F 75% 30.34 in 10.0 mi SSE 8.1 mph - N/A   Clear